Weather in Zhudre

Russia / Oryol Oblast     53°14′43″N   35°18′11″E
temp.,
°C
wind,
m/s
gust,
m/s
humid.,
%
clouds,
%
prec.,
mm/h
press.,
hPa
HPBL,
m
12 may, wed
wed1200:00+8ese310915 0.0 1024335
03:00+5ese38930 0.0 1025198
06:00+6e26914 0.0 1025151
09:00+11ene476915 0.0 1024694
12:00+15e455399 0.0 10221501
15:00+13ene3462100 0.4 10201366
18:00+10e3587100 0.4 1018386
21:00+8e39955 0.4 1018282
13 may, thu
thu1300:00+7e4139350 0.0 1016351
03:00+7ese5139497 0.0 1016493
06:00+8ese4129640 0.3 1015542
09:00+11se5883100 0.4 1015818
12:00+12sse5770100 0.2 10151179
15:00+15s575796 0.3 10141832
18:00+13ssw46654 0.1 10141023
21:00+9ssw2288100 0.1 101536
14 may, fri
fri1400:00+7se22900 0.0 101615
03:00+7ese3594100 0.0 101693
06:00+9ese379299 0.0 1016175
09:00+15ese4676100 0.1 1015395
12:00+19ese686891 0.1 10131135
15:00+21se697367 2.9 10111272
18:00+19sse6118192 3.3 1009528
21:00+15sse359453 6.3 100973
15 may, sat
sat1500:00+14sse359793 4.7 1010101
03:00+13se359766 6.8 100992
06:00+13se269879 0.1 1009158
09:00+17s47876 1.1 1008335
12:00+20ssw58745 2.8 10091191
15:00+21ssw610621 3.9 10091820
18:00+17sw598122 1.4 1010945
21:00+12sw379546 1.6 1011164
16 may, sun
sun1600:00+11sw24965 0.0 101276
03:00+10sw22950 0.0 101317
06:00+10ssw12940 0.0 101448
09:00+15wsw12761 0.0 1015583
12:00+20sw015514 0.0 10151265
15:00+21e225095 0.0 10141494
18:00+19ese3568100 0.0 1015479
21:00+14ene358365 0.0 101574